Weather History for Tri-Cities, TN

Change the Weather History Date:

Monday, February 10, 2014

  Actual Average Record
Temperature  
Mean Temperature 31 °F 38 °F  
Max Temperature 36 °F 49 °F 73 °F (1939)
Min Temperature 25 °F 27 °F 1 °F (1979)
Degree Days  
Heating Degree Days 34 27  
Month to date heating degree days 275 280  
Since 1 July heating degree days 3029 2934  
Cooling Degree Days 0 0  
Month to date cooling degree days 0 0  
Year to date cooling degree days 0 0  
Moisture  
Dew Point 25 °F    
Average Humidity 76    
Maximum Humidity 89    
Minimum Humidity 63    
Precipitation  
Precipitation T in 0.13 in 1.66 in (1946)
Month to date precipitation 1.52 1.25  
Year to date precipitation 3.32 4.62  
Snow  
Snow T in 0.10 in - ()
Month to date snowfall T 1.3  
Since 1 July snowfall 6.0 8.7  
Snow Depth 0.00 in    
Sea Level Pressure  
Sea Level Pressure 30.15 in    
Wind  
Wind Speed 5 mph (North)    
Max Wind Speed 10 mph    
Max Gust Speed 12 mph    
Visibility 8 miles    
Events Snow    
T = Trace of Precipitation, MM = Missing Value Source: NWS Daily Summary

Daily Weather History Graph

Daily Weather History Graph

Search for Another Location

Airport:

Trip Planner

Search our weather history database for the weather conditions in past years. The results will help you decide how hot, cold, wet, or windy it might be!

Date:

Astronomy

Feb. 10, 2014 Rise Set
Actual Time 7:22 AM EST 6:05 PM EST
Civil Twilight 6:56 AM EST 6:31 PM EST
Nautical Twilight 6:25 AM EST 7:02 PM EST
Astronomical Twilight 5:55 AM EST 7:32 PM EST
Moon 2:36 PM EST (2/10) 4:12 AM EST (2/10)
Length of Visible Light 11h 35m
Length of Day
10h 42m
Waxing Gibbous, 84% of the Moon is Illuminated
Feb 10
Waxing Gibbous
Feb 14
Full
Feb 22
Last Quarter
Mar 1
New
Mar 8
First Quarter

Hourly Weather History & Observations

Time (EST) Temp. Windchill Dew Point Humidity Pressure Visibility Wind Dir Wind Speed Gust Speed Precip Events Conditions
12:53 AM 36.0 °F 32.1 °F 28.9 °F 76% 30.08 in 10.0 mi WNW 4.6 mph - N/A   Overcast
1:53 AM 35.1 °F 31.0 °F 28.9 °F 78% 30.09 in 10.0 mi NW 4.6 mph - N/A   Overcast
2:07 AM 35.1 °F 31.0 °F 28.9 °F 78% 30.09 in 10.0 mi NW 4.6 mph - N/A   Overcast
2:53 AM 34.0 °F 31.0 °F 28.9 °F 82% 30.10 in 8.0 mi NW 3.5 mph - N/A   Overcast
3:53 AM 33.1 °F 28.7 °F 28.9 °F 85% 30.09 in 5.0 mi North 4.6 mph - N/A   Overcast
4:53 AM 32.0 °F - 28.9 °F 88% 30.10 in 6.0 mi Calm Calm - N/A   Overcast
5:36 AM 32.0 °F - 28.9 °F 88% 30.11 in 4.0 mi Calm Calm - N/A   Overcast
5:43 AM 32.0 °F - 28.9 °F 88% 30.11 in 4.0 mi Calm Calm - N/A   Overcast
5:53 AM 32.0 °F 27.5 °F 28.9 °F 88% 30.09 in 4.0 mi NNE 4.6 mph - N/A   Overcast
6:14 AM 32.0 °F 26.4 °F 28.0 °F 85% 30.10 in 5.0 mi NNE 5.8 mph - N/A   Overcast
6:53 AM 32.0 °F 27.5 °F 28.0 °F 85% 30.12 in 10.0 mi NNE 4.6 mph - N/A   Overcast
7:12 AM 32.0 °F 26.4 °F 27.0 °F 82% 30.12 in 10.0 mi NNE 5.8 mph - N/A   Overcast
7:34 AM 32.0 °F 27.5 °F 26.1 °F 79% 30.13 in 10.0 mi NNE 4.6 mph - N/A   Overcast
7:53 AM 32.0 °F 28.7 °F 26.1 °F 79% 30.14 in 10.0 mi North 3.5 mph - N/A   Overcast
8:53 AM 32.0 °F 25.6 °F 24.1 °F 73% 30.17 in 10.0 mi NNE 6.9 mph - N/A   Overcast
9:53 AM 32.0 °F 25.6 °F 24.1 °F 73% 30.17 in 10.0 mi NNE 6.9 mph - N/A   Overcast
10:53 AM 33.1 °F 27.7 °F 24.1 °F 70% 30.18 in 10.0 mi NNE 5.8 mph - N/A   Overcast
11:53 AM 33.1 °F 26.9 °F 25.0 °F 72% 30.19 in 10.0 mi North 6.9 mph - N/A   Overcast
12:28 PM 34.0 °F 28.0 °F 25.0 °F 70% 30.18 in 10.0 mi NNE 6.9 mph - N/A   Overcast
12:53 PM 34.0 °F 29.8 °F 25.0 °F 70% 30.17 in 10.0 mi North 4.6 mph - N/A   Overcast
1:42 PM 35.1 °F 30.1 °F 24.1 °F 64% 30.16 in 10.0 mi North 5.8 mph - N/A   Overcast
1:53 PM 35.1 °F 28.6 °F 24.1 °F 64% 30.15 in 10.0 mi North 8.1 mph - N/A   Overcast
2:30 PM 34.0 °F 28.0 °F 23.0 °F 64% 30.15 in 9.0 mi North 6.9 mph - 0.00 in Snow Light Snow
2:53 PM 34.0 °F 28.0 °F 24.1 °F 67% 30.15 in 6.0 mi North 6.9 mph - 0.00 in Snow Light Snow
3:07 PM 34.0 °F 28.0 °F 24.1 °F 67% 30.16 in 2.0 mi NNE 6.9 mph - 0.00 in Snow Light Snow
3:44 PM 34.0 °F 28.8 °F 24.1 °F 67% 30.15 in 5.0 mi ENE 5.8 mph - 0.00 in Snow Light Snow
3:53 PM 34.0 °F 29.8 °F 25.0 °F 70% 30.15 in 9.0 mi NNE 4.6 mph - 0.00 in Snow Light Snow
4:24 PM 34.0 °F 29.8 °F 24.1 °F 67% 30.15 in 9.0 mi NE 4.6 mph - 0.00 in Snow Light Snow
4:53 PM 34.0 °F 28.8 °F 23.0 °F 64% 30.16 in 10.0 mi North 5.8 mph - 0.00 in   Overcast
5:53 PM 32.0 °F 28.7 °F 21.9 °F 66% 30.17 in 10.0 mi North 3.5 mph - N/A   Mostly Cloudy
6:53 PM 30.0 °F - 21.0 °F 69% 30.20 in 10.0 mi Calm Calm - N/A   Mostly Cloudy
7:53 PM 28.0 °F 24.2 °F 21.0 °F 75% 30.22 in 10.0 mi North 3.5 mph - N/A   Mostly Cloudy
8:53 PM 28.0 °F 22.8 °F 18.0 °F 66% 30.21 in 10.0 mi North 4.6 mph - N/A   Mostly Cloudy
9:53 PM 27.0 °F 23.0 °F 17.1 °F 66% 30.24 in 10.0 mi NNE 3.5 mph - N/A   Mostly Cloudy
10:53 PM 26.1 °F - 16.0 °F 66% 30.25 in 10.0 mi Calm Calm - N/A   Mostly Cloudy
11:53 PM 25.0 °F 17.1 °F 15.1 °F 66% 30.24 in 10.0 mi North 6.9 mph - N/A   Mostly Cloudy